BEIDOU-3 G1 (PRN 130)

Last updated on Thu Jul 03 2025 00:03:25 GMT+0000 (Coordinated Universal Time)

1 43683U 18085A 25183.59440214 -.00000271 00000+0 00000+0 0 9993 2 43683 2.7061 107.8949 0004346 355.0979 171.8659 1.00268821 24556
UTC large
Height (km)
Speed (km/s)
/
Latitude / Longitude
Inclination (degrees)
Orbital Period (minutes)
Azimuth
Elevation
Range (km)
Doppler Factor

Next 0 passes for location: London (51.5072 / 0.1276)

Sorry there are no passes over London.